BMCB-31 Weather Reports


time (UTC)temp
C
wind
direction
speed
KPH
gust
KPH
rain 1hr
cm
rain 24hr
cm
rain mn
cm
humidity
%
barometer
mb
20260507023056 5 0 0.0 0.0 0.00 0.81 0.05 10 1015.1
20260507021056 5 0 0.0 0.0 0.00 0.86 0.05 10 1015.0
20260507020056 5 0 0.0 0.0 0.00 0.97 0.05 10 1015.0
20260507014057 5 0 0.0 0.0 0.03 0.97 0.05 10 1014.9
20260507011058 5 0 0.0 0.0 0.03 0.97 0.05 10 1014.8
20260507010059 5 0 0.0 0.0 0.03 0.97 0.05 10 1014.8
20260507005056 6 0 0.0 0.0 0.03 1.09 0.05 10 1014.7
20260507004058 6 0 0.0 0.0 0.00 1.07 0.03 10 1014.7
20260507002057 6 0 0.0 0.0 0.00 1.07 0.03 10 1014.5
20260507001021 6 0 0.0 0.0 0.00 1.07 0.03 10 1014.5
20260507000031 6 0 0.0 0.0 0.00 1.07 0.03 10 1014.5
20260506235100 6 0 0.0 0.0 0.00 1.07 0.03 10 1014.4
20260506230100 6 0 0.0 0.0 0.03 1.12 0.03 10 1014.1
20260506220107 6 0 0.0 0.0 0.03 1.17 0.03 10 1013.6
20260506211103 6 0 0.0 0.0 0.00 1.19 1.14 10 1013.2
20260506210055 6 0 0.0 0.0 0.00 1.19 1.14 10 1013.2
20260506202100 6 0 0.0 0.0 0.00 1.32 1.14 10 1013.1
20260506201108 6 0 0.0 0.0 0.00 1.32 1.14 10 1013.0
20260506200059 6 0 0.0 0.0 0.03 1.35 1.14 10 1012.9
20260506193030 6 0 0.0 0.0 0.05 1.42 1.14 10 1012.7
20260506192103 6 0 0.0 0.0 0.05 1.45 1.14 10 1012.6
20260506191051 6 0 0.0 0.0 0.05 1.52 1.14 10 1012.6
20260506190100 6 0 0.0 0.0 0.05 1.52 1.14 10 1012.6
20260506175059 6 0 0.0 0.0 0.03 1.68 1.09 10 1012.0
20260506174056 6 0 0.0 0.0 0.03 1.68 1.09 10 1011.9
20260506173057 6 0 0.0 0.0 0.00 1.75 1.09 99 1011.8
20260506172102 6 0 0.0 0.0 0.00 1.75 1.09 99 1011.7
20260506171100 6 0 0.0 0.0 0.00 1.75 1.09 99 1011.6
20260506164100 6 0 0.0 0.0 0.00 1.83 1.09 99 1011.5
20260506163056 6 0 0.0 0.0 0.00 1.88 1.09 99 1011.5
20260506161056 6 0 0.0 0.0 0.00 1.96 1.09 99 1011.5
20260506155021 6 0 0.0 0.0 0.00 2.01 1.09 10 1011.4
20260506153056 6 0 0.0 0.0 0.00 2.03 1.09 10 1011.3
20260506145058 7 0 0.0 0.0 0.03 2.03 1.09 99 1011.2
20260506143054 7 0 0.0 0.0 0.08 2.03 1.09 98 1011.0
20260506142055 7 0 0.0 0.0 0.08 2.03 1.09 98 1011.1
20260506141055 7 0 0.0 0.0 0.10 2.03 1.09 99 1011.1
20260506140053 7 0 0.0 0.0 0.13 2.03 1.09 99 1011.1
20260506135057 7 0 0.0 0.0 0.13 2.03 1.09 99 1011.1
20260506134055 7 0 0.0 0.0 0.10 2.01 1.07 99 1011.0
20260506133055 7 0 0.0 0.0 0.08 1.98 1.04 99 1010.9
20260506131056 7 0 0.0 0.0 0.05 1.93 0.99 99 1010.6
20260506130058 7 0 0.0 0.0 0.03 1.93 0.99 99 1010.5
20260506123100 7 0 0.0 0.0 0.03 1.96 0.97 99 1010.3
20260506122058 7 0 0.0 0.0 0.03 1.96 0.97 99 1010.3
20260506115022 7 0 0.0 0.0 0.05 1.96 0.97 99 1010.1
20260506111057 7 0 0.0 0.0 0.10 1.93 0.94 99 1009.9
20260506104055 8 0 0.0 0.0 0.15 1.93 0.91 99 1009.8
20260506102057 8 0 0.0 0.0 0.10 1.88 0.89 10 1009.6
20260506101054 7 0 0.0 0.0 0.13 1.88 0.89 99 1009.6
20260506094054 8 0 0.0 0.0 0.23 1.83 0.84 10 1009.3
20260506091055 8 0 0.0 0.0 0.15 1.78 0.79 10 1009.2
20260506090100 7 0 0.0 0.0 0.15 1.75 0.76 10 1009.1
20260506085045 7 0 0.0 0.0 0.13 1.73 0.71 10 1009.1
20260506071023 7 0 0.0 0.0 0.03 1.57 0.58 10 1008.6
20260506051022 7 0 0.0 0.0 0.10 1.52 0.51 10 1008.2
20260506034054 7 0 0.0 0.0 0.05 1.42 0.43 10 1008.3